Time,TemperatureF,DewpointF,PressureIn,WindDirection,WindDirectionDegrees,WindSpeedMPH,WindSpeedGustMPH,Humidity,HourlyPrecipIn,Conditions,Clouds,dailyrainin,SolarRadiationWatts/m^2,SoftwareType,DateUTC
2015-01-29 00:02:00,33.1,31.3,30.04,ESE,107,0.0,16.0,93,0.00,,,0.00,0.0,meteohub,2015-01-29 06:02:00,
2015-01-29 00:07:00,33.1,31.3,30.04,WNW,298,3.0,16.0,93,0.00,,,0.00,0.0,meteohub,2015-01-29 06:07:00,
2015-01-29 00:12:00,33.1,31.1,30.05,WNW,288,6.0,13.0,92,0.00,,,0.00,0.0,meteohub,2015-01-29 06:12:00,
2015-01-29 00:17:00,33.1,31.1,30.04,West,273,2.0,14.0,92,0.00,,,0.00,0.0,meteohub,2015-01-29 06:17:00,
2015-01-29 00:22:00,33.1,31.1,30.04,West,263,4.0,14.0,92,0.00,,,0.00,0.0,meteohub,2015-01-29 06:22:00,
2015-01-29 00:27:00,33.1,30.7,30.04,WNW,303,7.0,14.0,91,0.00,,,0.00,0.0,meteohub,2015-01-29 06:27:00,
2015-01-29 00:32:00,33.1,30.7,30.05,West,263,9.0,15.0,91,0.00,,,0.00,0.0,meteohub,2015-01-29 06:32:00,
2015-01-29 00:37:00,33.1,30.7,30.05,WSW,253,8.0,15.0,91,0.00,,,0.00,0.0,meteohub,2015-01-29 06:37:00,
2015-01-29 00:42:00,33.1,30.7,30.05,NNE,18,8.0,15.0,91,0.00,,,0.00,0.0,meteohub,2015-01-29 06:42:00,
2015-01-29 00:47:00,32.7,30.7,30.05,West,281,6.0,13.0,92,0.00,,,0.00,0.0,meteohub,2015-01-29 06:47:00,
2015-01-29 00:52:00,32.5,30.6,30.05,WNW,288,5.0,13.0,92,0.00,,,0.00,0.0,meteohub,2015-01-29 06:52:00,
2015-01-29 00:57:00,32.5,30.6,30.06,NW,308,2.0,16.0,92,0.00,,,0.00,0.0,meteohub,2015-01-29 06:57:00,
2015-01-29 01:02:00,32.4,30.4,30.06,West,277,6.0,16.0,92,0.00,,,0.00,0.0,meteohub,2015-01-29 07:02:00,
2015-01-29 01:07:00,32.4,30.4,30.06,WNW,298,5.0,16.0,92,0.00,,,0.00,0.0,meteohub,2015-01-29 07:07:00,
2015-01-29 01:12:00,32.4,30.4,30.06,WNW,286,4.0,18.0,92,0.00,,,0.00,0.0,meteohub,2015-01-29 07:12:00,
2015-01-29 01:17:00,32.4,30.4,30.07,NNE,24,4.0,18.0,92,0.00,,,0.00,0.0,meteohub,2015-01-29 07:17:00,
2015-01-29 01:22:00,32.2,30.2,30.06,West,267,14.0,14.0,92,0.00,,,0.00,0.0,meteohub,2015-01-29 07:22:00,
2015-01-29 01:27:00,32.0,29.7,30.08,NNW,329,7.0,14.0,91,0.00,,,0.00,0.0,meteohub,2015-01-29 07:27:00,
2015-01-29 01:32:00,31.8,29.5,30.08,NNW,329,4.0,14.0,91,0.00,,,0.00,0.0,meteohub,2015-01-29 07:32:00,
2015-01-29 01:37:00,31.8,29.3,30.08,SE,127,2.0,14.0,90,0.00,,,0.00,0.0,meteohub,2015-01-29 07:37:00,
2015-01-29 01:42:00,31.8,29.3,30.09,WSW,240,7.0,16.0,90,0.00,,,0.00,0.0,meteohub,2015-01-29 07:42:00,
2015-01-29 01:47:00,31.8,29.3,30.09,WSW,257,3.0,16.0,90,0.00,,,0.00,0.0,meteohub,2015-01-29 07:47:00,
2015-01-29 01:52:00,31.8,29.3,30.09,NNW,327,1.0,16.0,90,0.00,,,0.00,0.0,meteohub,2015-01-29 07:52:00,
2015-01-29 01:57:00,31.8,29.3,30.10,WNW,298,1.0,14.0,90,0.00,,,0.00,0.0,meteohub,2015-01-29 07:57:00,
2015-01-29 02:02:00,31.8,29.3,30.10,North,349,4.0,11.0,90,0.00,,,0.00,0.0,meteohub,2015-01-29 08:02:00,
2015-01-29 02:07:00,31.8,29.3,30.10,South,185,6.0,14.0,90,0.00,,,0.00,0.0,meteohub,2015-01-29 08:07:00,
2015-01-29 02:12:00,31.6,29.1,30.11,WNW,287,6.0,14.0,90,0.00,,,0.00,0.0,meteohub,2015-01-29 08:12:00,
2015-01-29 02:17:00,31.6,28.8,30.11,NW,317,3.0,14.0,89,0.00,,,0.00,0.0,meteohub,2015-01-29 08:17:00,
2015-01-29 02:22:00,31.6,28.8,30.12,WSW,252,8.0,17.0,89,0.00,,,0.00,0.0,meteohub,2015-01-29 08:22:00,
2015-01-29 02:27:00,31.5,28.6,30.12,WSW,245,11.0,17.0,89,0.00,,,0.00,0.0,meteohub,2015-01-29 08:27:00,
2015-01-29 02:32:00,31.5,28.6,30.12,WNW,286,2.0,12.0,89,0.00,,,0.00,0.0,meteohub,2015-01-29 08:32:00,
2015-01-29 02:37:00,31.5,28.6,30.13,WNW,283,8.0,14.0,89,0.00,,,0.00,0.0,meteohub,2015-01-29 08:37:00,
2015-01-29 02:42:00,31.3,28.4,30.13,WNW,285,7.0,22.0,89,0.00,,,0.00,0.0,meteohub,2015-01-29 08:42:00,
2015-01-29 02:47:00,31.3,28.4,30.13,NW,319,5.0,22.0,89,0.00,,,0.00,0.0,meteohub,2015-01-29 08:47:00,
2015-01-29 02:52:00,31.1,28.2,30.13,NW,310,3.0,22.0,89,0.00,,,0.00,0.0,meteohub,2015-01-29 08:52:00,
2015-01-29 02:57:00,31.1,28.0,30.14,WSW,254,5.0,16.0,88,0.00,,,0.00,0.0,meteohub,2015-01-29 08:57:00,
2015-01-29 03:02:00,30.9,27.9,30.14,NNW,327,2.0,20.0,88,0.00,,,0.00,0.0,meteohub,2015-01-29 09:02:00,
2015-01-29 03:07:00,30.9,27.9,30.14,West,280,6.0,20.0,88,0.00,,,0.00,0.0,meteohub,2015-01-29 09:07:00,
2015-01-29 03:12:00,30.9,28.0,30.15,North,350,5.0,20.0,89,0.00,,,0.00,0.0,meteohub,2015-01-29 09:12:00,
2015-01-29 03:17:00,30.9,27.9,30.15,NNE,14,3.0,12.0,88,0.00,,,0.00,0.0,meteohub,2015-01-29 09:17:00,
2015-01-29 03:22:00,30.7,27.3,30.15,WNW,296,2.0,15.0,87,0.00,,,0.00,0.0,meteohub,2015-01-29 09:22:00,
2015-01-29 03:27:00,30.7,27.7,30.16,West,269,7.0,18.0,88,0.00,,,0.00,0.0,meteohub,2015-01-29 09:27:00,
2015-01-29 03:32:00,30.7,27.7,30.17,NNE,23,4.0,18.0,88,0.00,,,0.00,0.0,meteohub,2015-01-29 09:32:00,
2015-01-29 03:37:00,30.7,27.7,30.16,West,276,3.0,18.0,88,0.00,,,0.00,0.0,meteohub,2015-01-29 09:37:00,
2015-01-29 03:42:00,30.6,27.5,30.17,West,278,9.0,15.0,88,0.00,,,0.00,0.0,meteohub,2015-01-29 09:42:00,
2015-01-29 03:47:00,30.6,27.1,30.17,WSW,248,6.0,15.0,87,0.00,,,0.00,0.0,meteohub,2015-01-29 09:47:00,
2015-01-29 03:52:00,30.4,27.0,30.17,NNW,338,3.0,18.0,87,0.00,,,0.00,0.0,meteohub,2015-01-29 09:52:00,
2015-01-29 03:57:00,30.4,27.3,30.18,North,355,8.0,18.0,88,0.00,,,0.00,0.0,meteohub,2015-01-29 09:57:00,
2015-01-29 04:02:00,30.2,27.1,30.18,WSW,254,5.0,18.0,88,0.00,,,0.00,0.0,meteohub,2015-01-29 10:02:00,
2015-01-29 04:07:00,30.0,27.0,30.18,WNW,303,6.0,16.0,88,0.00,,,0.00,0.0,meteohub,2015-01-29 10:07:00,
2015-01-29 04:12:00,30.0,27.1,30.19,NNW,331,7.0,15.0,89,0.00,,,0.00,0.0,meteohub,2015-01-29 10:12:00,
2015-01-29 04:17:00,29.8,26.8,30.19,West,280,5.0,15.0,88,0.00,,,0.00,0.0,meteohub,2015-01-29 10:17:00,
2015-01-29 04:22:00,29.7,26.6,30.19,WNW,286,8.0,15.0,88,0.00,,,0.00,0.0,meteohub,2015-01-29 10:22:00,
2015-01-29 04:27:00,29.5,26.4,30.19,West,265,8.0,14.0,88,0.00,,,0.00,0.0,meteohub,2015-01-29 10:27:00,
2015-01-29 04:32:00,29.5,26.4,30.20,NW,319,2.0,16.0,88,0.00,,,0.00,0.0,meteohub,2015-01-29 10:32:00,
2015-01-29 04:37:00,29.5,26.4,30.20,West,273,2.0,16.0,88,0.00,,,0.00,0.0,meteohub,2015-01-29 10:37:00,
2015-01-29 04:42:00,29.3,26.2,30.21,North,355,6.0,16.0,88,0.00,,,0.00,0.0,meteohub,2015-01-29 10:42:00,
2015-01-29 04:47:00,29.1,26.1,30.21,West,265,5.0,15.0,88,0.00,,,0.00,0.0,meteohub,2015-01-29 10:47:00,
2015-01-29 04:52:00,29.1,26.1,30.22,West,267,3.0,15.0,88,0.00,,,0.00,0.0,meteohub,2015-01-29 10:52:00,
2015-01-29 04:57:00,29.1,25.7,30.22,WNW,284,9.0,14.0,87,0.00,,,0.00,0.0,meteohub,2015-01-29 10:57:00,
2015-01-29 05:02:00,29.1,25.7,30.22,WSW,251,2.0,13.0,87,0.00,,,0.00,0.0,meteohub,2015-01-29 11:02:00,
2015-01-29 05:07:00,29.1,25.7,30.22,NW,308,4.0,13.0,87,0.00,,,0.00,0.0,meteohub,2015-01-29 11:07:00,
2015-01-29 05:12:00,29.1,25.7,30.23,NNW,329,5.0,15.0,87,0.00,,,0.00,0.0,meteohub,2015-01-29 11:12:00,
2015-01-29 05:17:00,29.1,26.1,30.23,North,9,4.0,15.0,88,0.00,,,0.00,0.0,meteohub,2015-01-29 11:17:00,
2015-01-29 05:22:00,29.1,25.7,30.23,SW,233,8.0,15.0,87,0.00,,,0.00,0.0,meteohub,2015-01-29 11:22:00,
2015-01-29 05:27:00,29.1,25.7,30.23,NW,313,5.0,14.0,87,0.00,,,0.00,0.0,meteohub,2015-01-29 11:27:00,
2015-01-29 05:32:00,29.1,25.7,30.24,NNW,331,4.0,17.0,87,0.00,,,0.00,0.0,meteohub,2015-01-29 11:32:00,
2015-01-29 05:37:00,29.3,25.7,30.24,NNE,23,1.0,17.0,86,0.00,,,0.00,0.0,meteohub,2015-01-29 11:37:00,
2015-01-29 05:42:00,29.3,25.9,30.25,WNW,288,2.0,14.0,87,0.00,,,0.00,0.0,meteohub,2015-01-29 11:42:00,
2015-01-29 05:47:00,29.3,25.9,30.25,North,355,4.0,14.0,87,0.00,,,0.00,0.0,meteohub,2015-01-29 11:47:00,
2015-01-29 05:52:00,29.1,25.5,30.25,WNW,298,4.0,12.0,86,0.00,,,0.00,0.0,meteohub,2015-01-29 11:52:00,
2015-01-29 05:57:00,29.1,25.5,30.25,North,351,2.0,14.0,86,0.00,,,0.00,0.0,meteohub,2015-01-29 11:57:00,
2015-01-29 06:02:00,29.1,25.7,30.26,WSW,247,7.0,14.0,87,0.00,,,0.00,0.0,meteohub,2015-01-29 12:02:00,
2015-01-29 06:07:00,29.1,25.7,30.27,NW,325,3.0,16.0,87,0.00,,,0.00,0.0,meteohub,2015-01-29 12:07:00,
2015-01-29 06:12:00,28.9,25.5,30.27,WNW,296,2.0,16.0,87,0.00,,,0.00,0.0,meteohub,2015-01-29 12:12:00,
2015-01-29 06:17:00,28.9,25.5,30.28,West,262,7.0,16.0,87,0.00,,,0.00,0.0,meteohub,2015-01-29 12:17:00,
2015-01-29 06:22:00,28.8,25.3,30.28,WSW,246,9.0,14.0,87,0.00,,,0.00,0.0,meteohub,2015-01-29 12:22:00,
2015-01-29 06:27:00,28.8,25.3,30.28,West,273,4.0,14.0,87,0.00,,,0.00,0.0,meteohub,2015-01-29 12:27:00,
2015-01-29 06:32:00,28.6,25.2,30.28,North,355,2.0,14.0,87,0.00,,,0.00,0.0,meteohub,2015-01-29 12:32:00,
2015-01-29 06:37:00,28.4,25.0,30.29,WSW,251,5.0,13.0,87,0.00,,,0.00,0.0,meteohub,2015-01-29 12:37:00,
2015-01-29 06:42:00,28.2,24.8,30.29,NW,307,3.0,13.0,87,0.00,,,0.00,0.0,meteohub,2015-01-29 12:42:00,
2015-01-29 06:47:00,28.2,24.8,30.29,WNW,298,6.0,14.0,87,0.00,,,0.00,0.0,meteohub,2015-01-29 12:47:00,
2015-01-29 06:52:00,28.0,24.6,30.30,WNW,298,4.0,14.0,87,0.00,,,0.00,0.0,meteohub,2015-01-29 12:52:00,
2015-01-29 06:57:00,28.0,24.6,30.30,NNW,340,5.0,12.0,87,0.00,,,0.00,0.0,meteohub,2015-01-29 12:57:00,
2015-01-29 07:02:00,28.0,24.6,30.31,West,281,9.0,12.0,87,0.00,,,0.00,0.0,meteohub,2015-01-29 13:02:00,
2015-01-29 07:07:00,28.0,24.6,30.31,WSW,252,7.0,13.0,87,0.00,,,0.00,0.0,meteohub,2015-01-29 13:07:00,
2015-01-29 07:12:00,27.9,24.4,30.31,West,276,4.0,19.0,87,0.00,,,0.00,0.0,meteohub,2015-01-29 13:12:00,
2015-01-29 07:17:00,27.7,24.3,30.32,WNW,292,7.0,19.0,87,0.00,,,0.00,0.0,meteohub,2015-01-29 13:17:00,
2015-01-29 07:22:00,27.7,24.3,30.32,WNW,290,7.0,19.0,87,0.00,,,0.00,0.0,meteohub,2015-01-29 13:22:00,
2015-01-29 07:27:00,27.5,24.1,30.32,West,281,3.0,11.0,87,0.00,,,0.00,0.0,meteohub,2015-01-29 13:27:00,
2015-01-29 07:32:00,27.3,23.9,30.33,West,267,4.0,17.0,87,0.00,,,0.00,0.0,meteohub,2015-01-29 13:32:00,
2015-01-29 07:37:00,27.3,23.9,30.33,NW,314,2.0,17.0,87,0.00,,,0.00,0.0,meteohub,2015-01-29 13:37:00,
2015-01-29 07:42:00,27.1,23.7,30.33,North,5,3.0,12.0,87,0.00,,,0.00,0.0,meteohub,2015-01-29 13:42:00,
2015-01-29 07:47:00,27.1,23.7,30.34,North,355,3.0,13.0,87,0.00,,,0.00,0.0,meteohub,2015-01-29 13:47:00,
2015-01-29 07:52:00,27.1,23.5,30.34,NNW,332,3.0,13.0,86,0.00,,,0.00,0.0,meteohub,2015-01-29 13:52:00,
2015-01-29 07:57:00,27.0,23.0,30.34,NNW,336,4.0,13.0,85,0.00,,,0.00,0.0,meteohub,2015-01-29 13:57:00,
2015-01-29 08:02:00,27.0,23.0,30.35,WNW,286,3.0,12.0,85,0.00,,,0.00,5.0,meteohub,2015-01-29 14:02:00,
2015-01-29 08:07:00,27.0,23.4,30.35,WNW,295,5.0,10.0,86,0.00,,,0.00,5.0,meteohub,2015-01-29 14:07:00,
2015-01-29 08:12:00,26.8,23.2,30.35,West,280,3.0,9.0,86,0.00,,,0.00,7.0,meteohub,2015-01-29 14:12:00,
2015-01-29 08:17:00,26.8,23.4,30.36,West,266,7.0,10.0,87,0.00,,,0.00,5.0,meteohub,2015-01-29 14:17:00,
2015-01-29 08:22:00,26.8,23.4,30.36,SSE,149,2.0,10.0,87,0.00,,,0.00,9.0,meteohub,2015-01-29 14:22:00,
2015-01-29 08:27:00,26.8,23.2,30.36,West,265,7.0,10.0,86,0.00,,,0.00,12.0,meteohub,2015-01-29 14:27:00,
2015-01-29 08:32:00,26.6,23.0,30.36,West,269,4.0,12.0,86,0.00,,,0.00,12.0,meteohub,2015-01-29 14:32:00,
2015-01-29 08:37:00,26.4,22.8,30.37,West,265,5.0,12.0,86,0.00,,,0.00,16.0,meteohub,2015-01-29 14:37:00,
2015-01-29 08:42:00,26.4,22.8,30.37,West,260,8.0,15.0,86,0.00,,,0.00,21.0,meteohub,2015-01-29 14:42:00,
2015-01-29 08:47:00,26.2,22.3,30.38,NW,317,8.0,15.0,85,0.00,,,0.00,25.0,meteohub,2015-01-29 14:47:00,
2015-01-29 08:52:00,26.2,22.3,30.38,WSW,251,7.0,12.0,85,0.00,,,0.00,30.0,meteohub,2015-01-29 14:52:00,
2015-01-29 08:57:00,26.1,21.9,30.39,WNW,287,4.0,12.0,84,0.00,,,0.00,37.0,meteohub,2015-01-29 14:57:00,
2015-01-29 09:02:00,26.1,21.6,30.39,NNW,348,4.0,12.0,83,0.00,,,0.00,46.0,meteohub,2015-01-29 15:02:00,
2015-01-29 09:07:00,25.9,21.4,30.39,WNW,301,4.0,14.0,83,0.00,,,0.00,56.0,meteohub,2015-01-29 15:07:00,
2015-01-29 09:12:00,25.9,21.4,30.39,ENE,61,7.0,14.0,83,0.00,,,0.00,63.0,meteohub,2015-01-29 15:12:00,
2015-01-29 09:17:00,25.9,21.2,30.40,WNW,284,6.0,14.0,82,0.00,,,0.00,67.0,meteohub,2015-01-29 15:17:00,
2015-01-29 09:22:00,25.9,21.2,30.40,NW,324,3.0,14.0,82,0.00,,,0.00,77.0,meteohub,2015-01-29 15:22:00,
2015-01-29 09:27:00,25.9,21.2,30.40,NNW,344,9.0,14.0,82,0.00,,,0.00,84.0,meteohub,2015-01-29 15:27:00,
2015-01-29 09:32:00,25.9,21.4,30.40,West,262,5.0,14.0,83,0.00,,,0.00,81.0,meteohub,2015-01-29 15:32:00,
2015-01-29 09:37:00,25.9,21.4,30.41,NNW,342,5.0,14.0,83,0.00,,,0.00,69.0,meteohub,2015-01-29 15:37:00,
2015-01-29 09:42:00,25.9,21.4,30.41,NE,40,3.0,13.0,83,0.00,,,0.00,69.0,meteohub,2015-01-29 15:42:00,
2015-01-29 09:47:00,25.9,21.4,30.42,NW,314,7.0,12.0,83,0.00,,,0.00,79.0,meteohub,2015-01-29 15:47:00,
2015-01-29 09:52:00,25.7,21.0,30.42,West,262,3.0,12.0,82,0.00,,,0.00,67.0,meteohub,2015-01-29 15:52:00,
2015-01-29 09:57:00,25.7,21.0,30.43,NNW,331,4.0,13.0,82,0.00,,,0.00,102.0,meteohub,2015-01-29 15:57:00,
2015-01-29 10:02:00,25.5,20.3,30.43,NW,304,5.0,15.0,80,0.00,,,0.00,113.0,meteohub,2015-01-29 16:02:00,
2015-01-29 10:07:00,25.3,20.1,30.43,NW,309,3.0,15.0,80,0.00,,,0.00,123.0,meteohub,2015-01-29 16:07:00,
2015-01-29 10:12:00,25.3,20.1,30.43,West,261,6.0,15.0,80,0.00,,,0.00,125.0,meteohub,2015-01-29 16:12:00,
2015-01-29 10:17:00,25.3,20.1,30.44,NNW,337,11.0,13.0,80,0.00,,,0.00,118.0,meteohub,2015-01-29 16:17:00,
2015-01-29 10:22:00,25.3,19.8,30.44,NW,320,4.0,13.0,79,0.00,,,0.00,114.0,meteohub,2015-01-29 16:22:00,
2015-01-29 10:27:00,25.3,20.1,30.44,West,277,5.0,13.0,80,0.00,,,0.00,111.0,meteohub,2015-01-29 16:27:00,
2015-01-29 10:32:00,25.3,19.8,30.44,WSW,247,4.0,13.0,79,0.00,,,0.00,113.0,meteohub,2015-01-29 16:32:00,
2015-01-29 10:37:00,25.3,20.1,30.45,WSW,239,3.0,12.0,80,0.00,,,0.00,105.0,meteohub,2015-01-29 16:37:00,
2015-01-29 10:42:00,25.3,20.1,30.45,WNW,298,7.0,12.0,80,0.00,,,0.00,107.0,meteohub,2015-01-29 16:42:00,
2015-01-29 10:47:00,25.3,20.1,30.45,West,277,4.0,13.0,80,0.00,,,0.00,107.0,meteohub,2015-01-29 16:47:00,
2015-01-29 10:52:00,25.3,20.1,30.46,West,277,5.0,13.0,80,0.00,,,0.00,104.0,meteohub,2015-01-29 16:52:00,
2015-01-29 10:57:00,25.3,20.3,30.46,West,281,5.0,13.0,81,0.00,,,0.00,107.0,meteohub,2015-01-29 16:57:00,
2015-01-29 11:02:00,25.2,20.1,30.46,WNW,298,2.0,10.0,81,0.00,,,0.00,109.0,meteohub,2015-01-29 17:02:00,
2015-01-29 11:07:00,25.3,20.3,30.46,West,277,5.0,10.0,81,0.00,,,0.00,105.0,meteohub,2015-01-29 17:07:00,
2015-01-29 11:12:00,25.2,20.1,30.46,NW,316,6.0,12.0,81,0.00,,,0.00,114.0,meteohub,2015-01-29 17:12:00,
2015-01-29 11:17:00,25.2,20.1,30.46,West,263,8.0,12.0,81,0.00,,,0.00,114.0,meteohub,2015-01-29 17:17:00,
2015-01-29 11:22:00,25.2,19.9,30.46,West,279,7.0,13.0,80,0.00,,,0.00,109.0,meteohub,2015-01-29 17:22:00,
2015-01-29 11:27:00,25.2,20.1,30.47,West,272,8.0,15.0,81,0.00,,,0.00,102.0,meteohub,2015-01-29 17:27:00,
2015-01-29 11:32:00,25.2,20.1,30.47,NW,307,2.0,15.0,81,0.00,,,0.00,113.0,meteohub,2015-01-29 17:32:00,
2015-01-29 11:37:00,25.2,20.1,30.47,West,263,7.0,15.0,81,0.00,,,0.00,128.0,meteohub,2015-01-29 17:37:00,
2015-01-29 11:42:00,25.2,19.9,30.48,NNW,331,6.0,13.0,80,0.00,,,0.00,111.0,meteohub,2015-01-29 17:42:00,
2015-01-29 11:47:00,25.2,19.9,30.48,NNW,327,3.0,13.0,80,0.00,,,0.00,113.0,meteohub,2015-01-29 17:47:00,